• Join FlightAware (Why Join?)
  • Login
  • US Flag GB Flag 
10:27 EST


 

Airport Tracker/Info


-or-


 

Live Flight TrackerFlight Track Log ✈ TCF3494 ✈ 24-Jul-2013 ✈ KORD - KLGA

Flight Track Log - Related Links

Times and Time Zones

All times are in EDT time to prevent confusion due to time zone crossing. See the TCF3494 flight status page for this flight to view local times or setup timezone preferences in your user account.

Time Position Orientation Groundspeed Altitude Reporting Facility
EDT Latitude Longitude Course Direction KTS MPH feet Rate Location/Type
20:18 42.0000 -87.8333 90° East 183 211 3,300  Level Chicago TRACON
20:19 42.0042 -87.7861 83° East 185 213 4,500 1,091 Climbing Chicago Center
20:20 41.9994 -87.6814 93° East 266 306 5,100 1,887 Climbing Chicago Center
20:21 41.9903 -87.5783 97° East 278 320 8,400 3,097 Climbing Chicago Center
20:22 41.9811 -87.4689 96° East 292 336 11,500 2,880 Climbing Chicago Center
20:23 41.9358 -87.1671 95° East  Level FlightAware Approximate
20:23 41.9697 -87.3203 96° East 328 377 14,400  Level Chicago Center
20:24 41.9333 -87.0203 90° East  Level FlightAware Approximate
20:24 41.9575 -87.1886 97° East 348 400 17,100  Level Chicago Center
20:25 41.9464 -87.0508 96° East 363 418 19,400 2,274 Climbing Chicago Center
20:26 41.9497 -86.9069 88° East 383 441 21,800 2,226 Climbing Chicago Center
20:27 41.9506 -86.7592 90° East 392 451 24,000 1,984 Climbing Chicago Center
20:28 41.9506 -86.6056 90° East 405 466 25,900 1,887 Climbing Chicago Center
20:29 41.9533 -86.4172 89° East 420 483 27,900 1,694 Climbing Chicago Center
20:30 41.9553 -86.2575 89° East 426 490 29,400 1,210 Climbing Chicago Center
20:31 41.9442 -86.0942 95° East 437 503 30,400 1,016 Climbing Chicago Center
20:32 41.9286 -85.9258 97° East 451 519 31,500 1,065 Climbing Chicago Center
20:33 41.9125 -85.7553 97° East 459 528 32,600 1,200 Climbing Chicago Center
20:34 41.8967 -85.5833 97° East 460 529 34,000 1,152 Climbing Chicago Center
20:35 41.8800 -85.4136 97° East 455 524 35,000 484 Climbing Chicago Center
20:36 41.8603 -85.2058 97° East 460 529 35,000  Level Chicago Center
20:37 41.8411 -85.0264 98° East 478 550 35,000  Level Chicago Center
20:38 41.8231 -84.8453 98° East 490 564 35,000  Level Chicago Center
20:39 41.8033 -84.6672 98° East 486 559 35,000  Level Chicago Center
20:40 41.7853 -84.4822 97° East 477 549 35,000  Level Cleveland Center
20:41 41.7786 -84.3008 93° East 477 549 35,000  Level Cleveland Center
20:42 41.7739 -84.1222 92° East 483 556 35,000  Level Cleveland Center
20:43 41.7731 -83.9439 90° East 488 562 35,000  Level Cleveland Center
20:44 41.7719 -83.7656 90° East 483 556 35,000  Level Cleveland Center
20:45 41.7686 -83.5817 91° East 483 556 35,000  Level Cleveland Center
20:46 41.7542 -83.4056 96° East 478 550 35,000  Level Cleveland Center
20:47 41.7378 -83.2267 97° East 483 556 35,000  Level Cleveland Center
20:48 41.7186 -83.0481 98° East 483 556 35,000  Level Cleveland Center
20:49 41.7017 -82.8692 97° East 483 556 35,000  Level Cleveland Center
20:50 41.6819 -82.6906 98° East 483 556 35,000  Level Cleveland Center
20:51 41.6644 -82.5094 97° East 483 556 35,000  Level Cleveland Center
20:52 41.6486 -82.3311 97° East 483 556 35,000  Level Cleveland Center
20:53 41.6281 -82.1556 99° East 483 556 35,000  Level Cleveland Center
20:54 41.6114 -81.9967 98° East 483 556 35,000  Level Cleveland Center
20:55 41.5906 -81.8186 99° East 488 562 35,000  Level Cleveland Center
20:56 41.5736 -81.6378 97° East 488 562 35,000  Level Cleveland Center
20:57 41.5503 -81.4461 99° East 488 562 35,000  Level Cleveland Center
20:58 41.5286 -81.2683 99° East 483 556 35,000  Level Cleveland Center
20:59 41.5086 -81.0878 98° East 488 562 35,000  Level Cleveland Center
21:00 41.4925 -80.9075 97° East 488 562 35,000  Level Cleveland Center
21:01 41.4783 -80.7272 96° East 482 555 35,000  Level Cleveland Center
21:02 41.4617 -80.5500 97° East 482 555 35,000  Level Cleveland Center
21:03 41.4450 -80.3725 97° East 482 555 35,000  Level Cleveland Center
21:04 41.4300 -80.2064 97° East 487 560 35,000  Level Cleveland Center
21:05 41.4144 -80.0239 96° East 487 560 35,000  Level Cleveland Center
21:06 41.3925 -79.8247 98° East 493 567 35,000  Level Cleveland Center
21:07 41.3744 -79.6450 98° East 493 567 35,000  Level Cleveland Center
21:08 41.3586 -79.4794 97° East 498 573 35,000  Level Cleveland Center
21:09 41.3375 -79.2778 98° East 503 579 35,000  Level Cleveland Center
21:10 41.3189 -79.0986 98° East 497 572 35,000  Level Cleveland Center
21:11 41.2994 -78.9136 98° East 502 578 35,000  Level Cleveland Center
21:12 41.2800 -78.7292 98° East 502 578 35,000  Level Cleveland Center
21:13 41.2603 -78.5472 98° East 502 578 35,000 -348 Level Cleveland Center
21:15 41.2278 -78.2781 99° East 498 573 34,100 -774 Descending New York Center
21:16 41.2100 -78.0967 97° East 493 567 33,000 -545 Descending New York Center
21:17 41.1872 -77.9203 100° East 488 562 33,000 -153 Level New York Center
21:18 41.1606 -77.7411 101° East 488 562 32,700 -1,017 Descending New York Center
21:19 41.1331 -77.5675 102° East 488 562 31,000 -1,672 Descending New York Center
21:20 41.1075 -77.3942 101° East 488 562 29,300 -1,686 Descending New York Center
21:21 41.0792 -77.2261 103° East 477 549 27,600 -1,636 Descending New York Center
21:22 41.0528 -77.0583 102° East 472 543 26,000 -1,587 Descending New York Center
21:23 41.0258 -76.8964 102° East 466 536 24,400 -1,590 Descending New York Center
21:24 41.0006 -76.7372 102° East 447 514 22,900 -1,513 Descending New York Center
21:25 40.9750 -76.5811 102° East 441 507 21,400 -1,475 Descending New York Center
21:26 40.9489 -76.4333 103° East 428 493 19,900 -1,537 Descending New York Center
21:27 40.9253 -76.2719 101° East 412 474 18,300 -1,513 Descending New York Center
21:28 40.8958 -76.1433 107° East 407 468 16,900 -1,361 Descending New York Center
21:29 40.8644 -76.0064 107° East 396 456 15,600 -1,400 Descending New York Center
21:30 40.8289 -75.8611 108° East 384 442 14,100 -1,289 Descending New York Center
21:31 40.7986 -75.7408 108° East 379 436 13,000 -550 Descending New York Center
21:32 40.7664 -75.6125 108° East 373 429 13,000  Level New York Center
21:33 40.7306 -75.4703 108° East 373 429 13,000  Level New York Center
21:34 40.7044 -75.3397 105° East 373 429 13,000 -300 Level New York Center
21:35 40.6797 -75.2206 105° East 373 429 12,400 -1,041 Descending New York Center
21:36 40.6242 -75.0939 120° Southeast 357 411 10,900 -1,200 Descending New York Center
21:37 40.5653 -74.9944 128° Southeast 357 411 10,000 -450 Descending New York Center
21:38 40.5278 -74.8722 112° Southeast 352 405 10,000 52 Level New York Center
21:39 40.5000 -74.7667 109° East 358 412 10,100 50 Climbing New York TRACON
21:40 40.4500 -74.6167 114° Southeast 364 419 10,100 -50 Level New York TRACON
21:41 40.4667 -74.5167 78° East 374 430 10,000  Descending New York TRACON
21:42 40.5167 -74.3667 66° East 370 426 10,100 -250 Climbing New York TRACON
21:43 40.5333 -74.2667 78° East 316 364 9,500 -1,316 Descending New York TRACON
21:44 40.5667 -74.1667 66° East 308 354 7,600 -1,950 Descending New York TRACON
21:45 40.6000 -74.0667 66° East 290 334 5,600 -2,000 Descending New York TRACON
21:46 40.6500 -74.0000 45° Northeast 260 299 3,600 -1,632 Descending New York TRACON
21:47 40.7000 -73.9500 37° Northeast 221 254 2,500 -1,222 Descending New York TRACON